OBJECT L, 63992

Orbit data source: Space-Track

You're viewing an Uncataloged Satellite

Recently launched and/or uncataloged satellites may have evolving metadata. Metadata may include but not limited to: Owner, Maufacturer, Bus, Motor, and Mission.

OBJECT L, 63992 is a Chinese satellite in SSO that was launched on Wed, 14 May 2025 UTC via a CHANG ZHENG 2D launch vehicle from the Jiuquan Satellite Launch Center, China (JSC). Unknown objects in Earth's orbit typically refer to objects detected orbiting the Earth but have not yet been identified or cataloged. These objects could be anything from previously untracked satellites, spent rocket stages, debris from satellite collisions, or even natural meteoroids temporarily captured by Earth's gravity.

Loading next visibility...
Identifier
63992, 2025-100L
Orbit
SSO
Country
Flag of CNCN / PRC
Related business
None
Manufacturer
Unknown
Mission
Operational Commercial Technology
Bus & Motor
Unknown
Mass
Unknown
Launch date (UTC)
2025-05-14 (1 year ago)
Launch vehicle
CHANG ZHENG 2D
Launch site
Jiuquan Satellite Launch Center, China (JSC)
Object type
Unknown
Shape & HBR
Box + 2 Pan, 0.9 m
Radar Cross Section
0.135 m², Medium (>0.1 m² and < 1m²)

Expand to show TLE details & history
Last TLE update: 7 hours ago

TLE from 7 hours ago
0 OBJECT L
1 63992U 25100L   26130.14576683  .00009111  00000-0  41257-3 0  9993
2 63992  97.3669 203.9535 0012585  82.7458 277.5207 15.21031695 54836
Epoch: 2026-05-10T03:29Z
TLE epoch observation values (Epoch: 2026-05-10T03:29:54.254Z)
Latitude
-0.00009°
Longitude
-76.47559°
Altitude
504.697 km
Speed
7.612 km/s
True Right ascension
13h 35m 48s
True Declination
0° 00' 00"
Sunlit
Object was in full shadow at epoch
Visualization orbit readout
Latitude
Unknown
Longitude
Unknown
Altitude
Unknown
Speed
Unknown
Apparent Right ascension
Unknown
Apparent Declination
Unknown
Sunlit
N/A
Visualization observer readout
Local Sidereal Time
18:59:22
Azimuth
Unknown
Elevation
Unknown
Doppler factor
Unknown
Orbital elements
Apogee altitude
508.346 km
Perigee altitude
491.034 km
Semi-major axis
6,877.827 km
Eccentricity
0.00126
Inclination
97.3669°
RAAN
203.9535°
Arg. of periapsis
82.7458°
True anomaly
277.3777°
Mean anomaly
277.5207°
Eccentric anomaly
277.4492°
Mean motion
3.8051 °/min
Orbital period
94.61 mins
BSTAR
0.00041257
Loading maneuver chart data...
Computing Atmospheric mass density...
Loading historical data...
Loading historical data...
Loading historical data...
Loading historical data...
Loading historical data...
Loading historical data...
Loading historical data...

Documentation

Showing up to 5 results
|